TimeCDT,TemperatureF,Dew PointF,Humidity,Sea Level PressureIn,VisibilityMPH,Wind Direction,Wind SpeedMPH,Gust SpeedMPH,PrecipitationIn,Events,Conditions,WindDirDegrees,DateUTC
12:55 AM,46.6,43.5,89,30.04,10.0,Calm,Calm,-,N/A,,Clear,0,2012-11-02 05:55:00
1:55 AM,45.7,42.8,90,30.05,10.0,Calm,Calm,-,N/A,,Clear,0,2012-11-02 06:55:00
2:55 AM,43.7,40.8,90,30.04,10.0,Calm,Calm,-,N/A,,Clear,0,2012-11-02 07:55:00
3:55 AM,43.5,41.2,91,30.04,10.0,Calm,Calm,-,N/A,,Clear,0,2012-11-02 08:55:00
4:55 AM,43.3,41.2,92,30.04,10.0,Calm,Calm,-,N/A,,Clear,0,2012-11-02 09:55:00
5:55 AM,42.6,40.6,93,30.05,10.0,Calm,Calm,-,N/A,,Clear,0,2012-11-02 10:55:00
6:55 AM,43.0,40.5,91,30.06,10.0,Calm,Calm,-,N/A,,Clear,0,2012-11-02 11:55:00
7:55 AM,46.8,43.7,89,30.07,10.0,Calm,Calm,-,N/A,,Clear,0,2012-11-02 12:55:00
8:55 AM,59.5,48.0,66,30.09,10.0,Calm,Calm,-,N/A,,Partly Cloudy,0,2012-11-02 13:55:00
9:55 AM,71.1,55.4,58,30.09,10.0,SSW,6.9,-,N/A,,Partly Cloudy,210,2012-11-02 14:55:00
10:55 AM,75.2,56.5,52,30.09,10.0,WSW,8.1,-,N/A,,Partly Cloudy,240,2012-11-02 15:55:00
11:55 AM,77.9,58.5,51,30.07,10.0,WSW,8.1,-,N/A,,Scattered Clouds,240,2012-11-02 16:55:00
12:55 PM,78.6,57.9,49,30.04,10.0,SW,6.9,-,N/A,,Scattered Clouds,230,2012-11-02 17:55:00
1:55 PM,80.4,59.2,48,30.01,10.0,WNW,9.2,-,N/A,,Scattered Clouds,300,2012-11-02 18:55:00
2:55 PM,80.8,59.7,49,30.00,10.0,Variable,6.9,-,N/A,,Scattered Clouds,0,2012-11-02 19:55:00
3:55 PM,77.2,64.6,65,30.00,10.0,SW,11.5,-,N/A,,Scattered Clouds,220,2012-11-02 20:55:00
4:55 PM,77.7,64.8,64,29.99,10.0,SW,8.1,-,N/A,,Partly Cloudy,230,2012-11-02 21:55:00
5:55 PM,73.2,64.6,74,30.00,10.0,South,6.9,-,N/A,,Partly Cloudy,190,2012-11-02 22:55:00
6:55 PM,70.2,64.0,81,30.01,10.0,SSW,6.9,-,N/A,,Clear,200,2012-11-02 23:55:00
7:55 PM,67.6,63.7,87,30.03,10.0,SW,4.6,-,N/A,,Clear,220,2012-11-03 00:55:00
8:55 PM,65.1,61.9,89,30.04,9.0,SSE,4.6,-,N/A,,Clear,160,2012-11-03 01:55:00
9:55 PM,62.2,60.8,95,30.05,5.0,South,3.5,-,N/A,,Clear,170,2012-11-03 02:55:00
10:55 PM,64.9,63.1,94,30.06,10.0,WSW,5.8,-,N/A,,Clear,250,2012-11-03 03:55:00
11:55 PM,65.1,63.3,94,30.06,10.0,WSW,5.8,-,N/A,,Clear,250,2012-11-03 04:55:00